Time,TemperatureF,DewpointF,PressureIn,WindDirection,WindDirectionDegrees,WindSpeedMPH,WindSpeedGustMPH,Humidity,HourlyPrecipIn,Conditions,Clouds,dailyrainin,SoftwareType,DateUTC
2013-05-09 00:03:00,58.1,58.1,29.95,NW,315,0.0,0.0,100,0.33,,,0.00,WSDL version 423,2013-05-09 04:03:00,
2013-05-09 00:13:00,57.9,57.9,29.95,WSW,238,0.0,0.0,100,0.33,,,0.00,WSDL version 423,2013-05-09 04:13:00,
2013-05-09 00:23:00,57.7,57.7,29.94,South,180,0.0,0.0,100,0.29,,,0.00,WSDL version 423,2013-05-09 04:23:00,
2013-05-09 00:33:00,57.7,57.7,29.94,SW,225,0.0,0.0,100,0.29,,,0.00,WSDL version 423,2013-05-09 04:33:00,
2013-05-09 00:43:00,57.6,57.6,29.94,SSW,211,0.0,0.0,100,0.08,,,0.00,WSDL version 423,2013-05-09 04:43:00,
2013-05-09 00:53:00,57.4,57.4,29.93,SW,225,0.0,0.0,100,0.00,,,0.00,WSDL version 423,2013-05-09 04:53:00,
2013-05-09 01:03:00,57.4,57.4,29.93,SW,225,0.0,0.0,100,0.00,,,0.00,WSDL version 423,2013-05-09 05:03:00,
2013-05-09 01:13:00,57.2,57.2,29.93,West,270,0.0,0.0,100,0.00,,,0.00,WSDL version 423,2013-05-09 05:13:00,
2013-05-09 01:23:00,57.2,57.2,29.92,West,270,0.0,0.0,100,0.00,,,0.00,WSDL version 423,2013-05-09 05:23:00,
2013-05-09 01:33:00,57.2,57.2,29.92,West,270,0.0,0.0,100,0.00,,,0.00,WSDL version 423,2013-05-09 05:33:00,
2013-05-09 01:43:00,57.2,57.2,29.92,West,270,0.0,0.0,100,0.00,,,0.00,WSDL version 423,2013-05-09 05:43:00,
2013-05-09 01:53:00,57.0,57.0,29.92,West,270,0.0,0.0,100,0.00,,,0.00,WSDL version 423,2013-05-09 05:53:00,
2013-05-09 02:03:00,57.0,57.0,29.91,West,270,0.0,0.0,100,0.00,,,0.00,WSDL version 423,2013-05-09 06:03:00,
2013-05-09 02:13:00,56.8,56.8,29.91,West,270,0.0,0.0,100,0.00,,,0.00,WSDL version 423,2013-05-09 06:13:00,
2013-05-09 02:23:00,56.8,56.8,29.91,West,270,0.0,0.0,100,0.00,,,0.00,WSDL version 423,2013-05-09 06:23:00,
2013-05-09 02:33:00,56.8,56.8,29.90,West,270,0.0,0.0,100,0.00,,,0.00,WSDL version 423,2013-05-09 06:33:00,
2013-05-09 02:43:00,56.8,56.8,29.90,West,270,0.0,0.0,100,0.00,,,0.00,WSDL version 423,2013-05-09 06:43:00,
2013-05-09 02:53:00,56.8,56.8,29.90,West,270,0.0,0.0,100,0.00,,,0.00,WSDL version 423,2013-05-09 06:53:00,
2013-05-09 03:03:00,56.8,56.8,29.90,West,270,0.0,0.0,100,0.00,,,0.00,WSDL version 423,2013-05-09 07:03:00,
2013-05-09 03:13:00,56.8,56.8,29.90,West,270,0.0,0.0,100,0.00,,,0.00,WSDL version 423,2013-05-09 07:13:00,
2013-05-09 03:23:00,56.8,56.8,29.90,West,270,0.0,0.0,100,0.00,,,0.00,WSDL version 423,2013-05-09 07:23:00,
2013-05-09 03:33:00,56.8,56.8,29.90,West,270,0.0,0.0,100,0.00,,,0.00,WSDL version 423,2013-05-09 07:33:00,
2013-05-09 03:43:00,56.8,56.8,29.90,West,270,0.0,0.0,100,0.00,,,0.00,WSDL version 423,2013-05-09 07:43:00,
2013-05-09 03:53:00,56.8,56.8,29.89,West,270,0.0,0.0,100,0.00,,,0.00,WSDL version 423,2013-05-09 07:53:00,
2013-05-09 04:03:00,56.8,56.8,29.89,West,270,0.0,0.0,100,0.00,,,0.00,WSDL version 423,2013-05-09 08:03:00,
2013-05-09 04:13:00,56.8,56.8,29.88,West,270,0.0,0.0,100,0.00,,,0.00,WSDL version 423,2013-05-09 08:13:00,
2013-05-09 04:23:00,56.8,56.8,29.88,West,270,0.0,0.0,100,0.00,,,0.00,WSDL version 423,2013-05-09 08:23:00,
2013-05-09 04:33:00,56.8,56.8,29.88,West,270,0.0,0.0,100,0.00,,,0.00,WSDL version 423,2013-05-09 08:33:00,
2013-05-09 04:43:00,56.8,56.8,29.88,West,270,0.0,0.0,100,0.00,,,0.00,WSDL version 423,2013-05-09 08:43:00,
2013-05-09 04:53:00,56.8,56.8,29.88,West,270,0.0,0.0,100,0.00,,,0.00,WSDL version 423,2013-05-09 08:53:00,
2013-05-09 05:03:00,57.0,57.0,29.88,West,270,0.0,0.0,100,0.00,,,0.00,WSDL version 423,2013-05-09 09:03:00,
2013-05-09 05:13:00,56.8,56.8,29.88,West,270,0.0,0.0,100,0.00,,,0.00,WSDL version 423,2013-05-09 09:13:00,
2013-05-09 05:23:00,56.9,56.9,29.88,West,270,0.0,0.0,100,0.00,,,0.00,WSDL version 423,2013-05-09 09:23:00,
2013-05-09 05:33:00,57.0,57.0,29.88,West,270,0.0,0.0,100,0.00,,,0.00,WSDL version 423,2013-05-09 09:33:00,
2013-05-09 05:43:00,57.0,57.0,29.88,West,270,0.0,0.0,100,0.00,,,0.00,WSDL version 423,2013-05-09 09:43:00,
2013-05-09 05:53:00,57.0,57.0,29.89,West,270,0.0,0.0,100,0.00,,,0.00,WSDL version 423,2013-05-09 09:53:00,
2013-05-09 06:03:00,57.0,57.0,29.89,West,270,0.0,0.0,100,0.00,,,0.00,WSDL version 423,2013-05-09 10:03:00,
2013-05-09 06:13:00,57.1,57.1,29.89,West,270,0.0,0.0,100,0.00,,,0.00,WSDL version 423,2013-05-09 10:13:00,
2013-05-09 06:23:00,57.2,57.2,29.88,West,270,0.0,0.0,100,0.00,,,0.00,WSDL version 423,2013-05-09 10:23:00,
2013-05-09 06:33:00,57.3,57.3,29.89,West,270,0.0,0.0,100,0.00,,,0.00,WSDL version 423,2013-05-09 10:33:00,
2013-05-09 06:43:00,57.6,57.6,29.88,West,270,0.0,0.0,100,0.00,,,0.00,WSDL version 423,2013-05-09 10:43:00,
2013-05-09 06:53:00,57.4,57.4,29.88,West,270,0.0,0.0,100,0.00,,,0.00,WSDL version 423,2013-05-09 10:53:00,
2013-05-09 07:03:00,57.7,57.7,29.89,West,270,0.0,0.0,100,0.00,,,0.00,WSDL version 423,2013-05-09 11:03:00,
2013-05-09 07:13:00,57.6,57.6,29.89,West,270,0.0,0.0,100,0.00,,,0.00,WSDL version 423,2013-05-09 11:13:00,
2013-05-09 07:23:00,57.8,57.8,29.89,West,270,0.0,0.0,100,0.00,,,0.00,WSDL version 423,2013-05-09 11:23:00,
2013-05-09 07:33:00,58.7,58.7,29.89,West,270,0.0,0.0,100,0.00,,,0.00,WSDL version 423,2013-05-09 11:33:00,
2013-05-09 07:43:00,58.3,58.3,29.90,West,270,0.0,0.0,100,0.00,,,0.00,WSDL version 423,2013-05-09 11:43:00,
2013-05-09 07:53:00,58.2,58.2,29.90,West,270,0.0,0.0,100,0.00,,,0.00,WSDL version 423,2013-05-09 11:53:00,
2013-05-09 08:03:00,58.5,58.5,29.90,West,270,0.0,0.0,100,0.00,,,0.00,WSDL version 423,2013-05-09 12:03:00,
2013-05-09 08:13:00,58.7,58.7,29.90,West,270,0.0,0.0,100,0.00,,,0.00,WSDL version 423,2013-05-09 12:13:00,
2013-05-09 08:23:00,59.0,59.0,29.89,West,270,0.0,0.0,100,0.00,,,0.00,WSDL version 423,2013-05-09 12:23:00,
2013-05-09 08:33:00,59.2,59.2,29.89,West,270,0.0,0.0,100,0.00,,,0.00,WSDL version 423,2013-05-09 12:33:00,
2013-05-09 08:43:00,59.3,59.3,29.89,West,270,0.0,0.0,100,0.00,,,0.00,WSDL version 423,2013-05-09 12:43:00,
2013-05-09 08:53:00,59.6,59.6,29.89,West,270,0.0,0.0,100,0.00,,,0.00,WSDL version 423,2013-05-09 12:53:00,
2013-05-09 09:03:00,59.2,59.2,29.89,West,270,0.0,0.0,100,0.00,,,0.00,WSDL version 423,2013-05-09 13:03:00,
2013-05-09 09:13:00,59.4,59.4,29.89,West,270,0.0,0.0,100,0.00,,,0.00,WSDL version 423,2013-05-09 13:13:00,
2013-05-09 09:23:00,59.9,59.9,29.89,West,270,0.0,0.0,100,0.04,,,0.04,WSDL version 423,2013-05-09 13:23:00,
2013-05-09 09:33:00,59.9,59.9,29.89,West,270,0.0,0.0,100,0.04,,,0.04,WSDL version 423,2013-05-09 13:33:00,
2013-05-09 09:43:00,60.0,60.0,29.89,West,270,0.0,0.0,100,0.04,,,0.04,WSDL version 423,2013-05-09 13:43:00,
2013-05-09 09:53:00,60.7,60.7,29.88,West,270,0.0,0.0,100,0.04,,,0.04,WSDL version 423,2013-05-09 13:53:00,
2013-05-09 10:03:00,60.7,60.7,29.88,West,270,0.0,0.0,100,0.04,,,0.04,WSDL version 423,2013-05-09 14:03:00,
2013-05-09 10:13:00,63.9,63.9,29.88,West,270,0.0,0.0,100,0.04,,,0.04,WSDL version 423,2013-05-09 14:13:00,
2013-05-09 10:23:00,64.6,64.6,29.87,West,270,0.0,0.0,100,0.00,,,0.04,WSDL version 423,2013-05-09 14:23:00,
2013-05-09 10:33:00,64.2,64.2,29.88,West,270,0.0,0.0,100,0.00,,,0.04,WSDL version 423,2013-05-09 14:33:00,
2013-05-09 10:43:00,64.7,64.7,29.88,West,270,0.0,0.0,100,0.00,,,0.04,WSDL version 423,2013-05-09 14:43:00,
2013-05-09 10:53:00,65.6,65.6,29.88,West,270,0.0,0.0,100,0.00,,,0.04,WSDL version 423,2013-05-09 14:53:00,
2013-05-09 11:03:00,65.2,65.2,29.87,West,270,0.0,0.0,100,0.00,,,0.04,WSDL version 423,2013-05-09 15:03:00,
2013-05-09 11:13:00,65.4,65.4,29.87,West,270,0.0,0.0,100,0.00,,,0.04,WSDL version 423,2013-05-09 15:13:00,
2013-05-09 11:23:00,64.2,64.2,29.87,West,270,0.0,0.0,100,0.00,,,0.04,WSDL version 423,2013-05-09 15:23:00,
2013-05-09 11:33:00,63.3,63.3,29.87,West,270,0.0,0.0,100,0.00,,,0.04,WSDL version 423,2013-05-09 15:33:00,
2013-05-09 11:43:00,63.3,63.3,29.87,West,270,0.0,0.0,100,0.00,,,0.04,WSDL version 423,2013-05-09 15:43:00,
2013-05-09 11:53:00,62.8,62.8,29.87,West,270,0.0,0.0,100,0.00,,,0.04,WSDL version 423,2013-05-09 15:53:00,
2013-05-09 12:03:00,62.1,62.1,29.88,West,270,0.0,0.0,100,0.00,,,0.04,WSDL version 423,2013-05-09 16:03:00,
2013-05-09 12:13:00,62.0,62.0,29.88,West,270,0.0,0.0,100,0.04,,,0.08,WSDL version 423,2013-05-09 16:13:00,
2013-05-09 12:23:00,61.4,61.4,29.87,West,270,0.0,0.0,100,0.08,,,0.13,WSDL version 423,2013-05-09 16:23:00,
2013-05-09 12:33:00,61.3,61.3,29.87,West,270,0.0,0.0,100,0.12,,,0.17,WSDL version 423,2013-05-09 16:33:00,
2013-05-09 12:43:00,61.3,61.3,29.87,West,270,0.0,0.0,100,0.12,,,0.17,WSDL version 423,2013-05-09 16:43:00,
2013-05-09 12:53:00,61.3,61.3,29.87,West,270,0.0,0.0,100,0.16,,,0.21,WSDL version 423,2013-05-09 16:53:00,
2013-05-09 13:03:00,60.8,60.8,29.86,West,270,0.0,0.0,100,0.16,,,0.21,WSDL version 423,2013-05-09 17:03:00,
2013-05-09 13:13:00,60.9,60.9,29.86,West,270,0.0,0.0,100,0.17,,,0.25,WSDL version 423,2013-05-09 17:13:00,
2013-05-09 13:23:00,60.8,60.8,29.85,West,270,0.0,0.0,100,0.12,,,0.25,WSDL version 423,2013-05-09 17:23:00,
2013-05-09 13:33:00,60.6,60.6,29.83,West,270,0.0,0.0,100,0.08,,,0.25,WSDL version 423,2013-05-09 17:33:00,
2013-05-09 13:43:00,60.6,60.6,29.84,WSW,248,0.0,0.0,100,0.13,,,0.29,WSDL version 423,2013-05-09 17:43:00,
2013-05-09 13:53:00,61.0,61.0,29.84,SW,225,0.0,0.0,100,0.08,,,0.29,WSDL version 423,2013-05-09 17:53:00,
2013-05-09 14:03:00,61.8,61.8,29.84,SW,225,0.0,0.0,100,0.08,,,0.29,WSDL version 423,2013-05-09 18:03:00,
2013-05-09 14:13:00,63.8,63.8,29.84,WSW,253,0.0,0.0,100,0.04,,,0.29,WSDL version 423,2013-05-09 18:13:00,
2013-05-09 14:23:00,64.6,64.6,29.84,SW,225,0.0,0.0,100,0.04,,,0.29,WSDL version 423,2013-05-09 18:23:00,
2013-05-09 14:33:00,66.3,66.3,29.84,SW,228,0.0,0.0,100,0.04,,,0.29,WSDL version 423,2013-05-09 18:33:00,
2013-05-09 14:43:00,66.7,66.7,29.84,South,180,0.0,0.0,100,0.00,,,0.29,WSDL version 423,2013-05-09 18:43:00,
2013-05-09 14:53:00,66.1,66.1,29.83,WSW,248,0.0,0.0,100,0.00,,,0.29,WSDL version 423,2013-05-09 18:53:00,
2013-05-09 15:03:00,68.1,68.1,29.82,North,354,0.0,0.0,100,0.00,,,0.29,WSDL version 423,2013-05-09 19:03:00,
2013-05-09 15:13:00,67.3,67.3,29.82,North,360,0.0,0.0,100,0.00,,,0.29,WSDL version 423,2013-05-09 19:13:00,
2013-05-09 15:23:00,67.6,67.6,29.81,North,360,0.0,0.0,100,0.00,,,0.29,WSDL version 423,2013-05-09 19:23:00,
2013-05-09 15:33:00,67.4,67.4,29.81,North,360,0.0,0.0,100,0.00,,,0.29,WSDL version 423,2013-05-09 19:33:00,
2013-05-09 15:43:00,66.9,66.9,29.81,North,360,0.0,0.0,100,0.00,,,0.29,WSDL version 423,2013-05-09 19:43:00,
2013-05-09 15:53:00,67.8,67.8,29.80,NNW,338,0.0,0.0,100,0.00,,,0.29,WSDL version 423,2013-05-09 19:53:00,
2013-05-09 16:03:00,68.1,68.1,29.80,NNW,338,0.0,0.0,100,0.00,,,0.29,WSDL version 423,2013-05-09 20:03:00,
2013-05-09 16:13:00,66.3,66.3,29.80,NNW,338,0.0,0.0,100,0.00,,,0.29,WSDL version 423,2013-05-09 20:13:00,
2013-05-09 16:23:00,66.5,66.5,29.80,NNW,338,0.0,0.0,100,0.00,,,0.29,WSDL version 423,2013-05-09 20:23:00,
2013-05-09 16:33:00,69.8,69.8,29.79,NNW,338,0.0,0.0,100,0.00,,,0.29,WSDL version 423,2013-05-09 20:33:00,
2013-05-09 16:43:00,69.8,69.8,29.79,NNW,338,0.0,0.0,100,0.00,,,0.29,WSDL version 423,2013-05-09 20:43:00,
2013-05-09 16:53:00,66.8,66.8,29.79,NNW,338,0.0,0.0,100,0.00,,,0.29,WSDL version 423,2013-05-09 20:53:00,
2013-05-09 17:03:00,64.8,64.8,29.79,NNW,338,0.0,0.0,100,0.00,,,0.29,WSDL version 423,2013-05-09 21:03:00,
2013-05-09 17:13:00,64.0,64.0,29.80,NNW,338,0.0,0.0,100,0.00,,,0.29,WSDL version 423,2013-05-09 21:13:00,
2013-05-09 17:23:00,63.4,63.4,29.80,NNW,338,0.0,0.0,100,0.00,,,0.29,WSDL version 423,2013-05-09 21:23:00,
2013-05-09 17:33:00,62.4,62.4,29.80,NNW,338,0.0,0.0,100,0.04,,,0.33,WSDL version 423,2013-05-09 21:33:00,
2013-05-09 17:43:00,61.5,61.5,29.81,NNW,338,0.0,0.0,100,0.04,,,0.33,WSDL version 423,2013-05-09 21:43:00,
2013-05-09 17:53:00,60.7,60.7,29.80,NNW,338,0.0,0.0,100,0.04,,,0.33,WSDL version 423,2013-05-09 21:53:00,
2013-05-09 18:03:00,60.1,60.1,29.81,NNW,338,0.0,0.0,100,0.04,,,0.33,WSDL version 423,2013-05-09 22:03:00,
2013-05-09 18:13:00,59.6,59.6,29.81,NNW,338,0.0,3.6,100,0.04,,,0.33,WSDL version 423,2013-05-09 22:13:00,
2013-05-09 18:23:00,59.4,59.4,29.80,NNW,338,0.0,3.6,100,0.04,,,0.33,WSDL version 423,2013-05-09 22:23:00,
2013-05-09 18:33:00,59.3,59.3,29.80,NNW,338,0.0,0.0,100,0.00,,,0.33,WSDL version 423,2013-05-09 22:33:00,
2013-05-09 18:43:00,59.2,59.2,29.80,NNW,338,0.0,0.0,100,0.00,,,0.33,WSDL version 423,2013-05-09 22:43:00,
2013-05-09 18:53:00,59.0,59.0,29.80,NNW,338,0.0,0.0,100,0.00,,,0.33,WSDL version 423,2013-05-09 22:53:00,
2013-05-09 19:03:00,58.8,58.8,29.79,NNW,338,0.0,0.0,100,0.04,,,0.37,WSDL version 423,2013-05-09 23:03:00,
2013-05-09 19:13:00,58.6,58.6,29.79,NNW,338,0.0,0.0,100,0.04,,,0.37,WSDL version 423,2013-05-09 23:13:00,
2013-05-09 19:23:00,58.5,58.5,29.80,NNW,338,0.0,0.0,100,0.04,,,0.37,WSDL version 423,2013-05-09 23:23:00,
2013-05-09 19:33:00,58.3,58.3,29.80,NNW,338,0.0,0.0,100,0.04,,,0.37,WSDL version 423,2013-05-09 23:33:00,
2013-05-09 19:43:00,58.2,58.2,29.80,NNW,338,0.0,0.0,100,0.04,,,0.37,WSDL version 423,2013-05-09 23:43:00,
2013-05-09 19:53:00,57.9,57.9,29.80,NNW,338,0.0,0.0,100,0.04,,,0.37,WSDL version 423,2013-05-09 23:53:00,
2013-05-09 20:03:00,57.7,57.7,29.80,NNW,338,0.0,0.0,100,0.00,,,0.37,WSDL version 423,2013-05-10 00:03:00,
2013-05-09 20:13:00,57.6,57.6,29.80,NNW,338,0.0,0.0,100,0.00,,,0.37,WSDL version 423,2013-05-10 00:13:00,
2013-05-09 20:23:00,57.3,57.3,29.80,NNW,338,0.0,0.0,100,0.00,,,0.37,WSDL version 423,2013-05-10 00:23:00,
2013-05-09 20:33:00,57.0,57.0,29.80,NNW,338,0.0,0.0,100,0.00,,,0.37,WSDL version 423,2013-05-10 00:33:00,
2013-05-09 20:43:00,56.8,56.8,29.80,NNW,338,0.0,0.0,100,0.00,,,0.37,WSDL version 423,2013-05-10 00:43:00,
2013-05-09 20:53:00,56.7,56.7,29.80,NNW,338,0.0,0.0,100,0.00,,,0.37,WSDL version 423,2013-05-10 00:53:00,
2013-05-09 21:03:00,56.6,56.6,29.81,NNW,338,0.0,0.0,100,0.00,,,0.37,WSDL version 423,2013-05-10 01:03:00,
2013-05-09 21:13:00,56.5,56.5,29.82,NNW,338,0.0,0.0,100,0.00,,,0.37,WSDL version 423,2013-05-10 01:13:00,
2013-05-09 21:23:00,56.3,56.3,29.82,NNW,338,0.0,0.0,100,0.00,,,0.37,WSDL version 423,2013-05-10 01:23:00,
2013-05-09 21:33:00,56.4,56.4,29.81,NNW,338,0.0,0.0,100,0.00,,,0.37,WSDL version 423,2013-05-10 01:33:00,
2013-05-09 21:43:00,56.6,56.6,29.82,NNW,338,0.0,0.0,100,0.00,,,0.37,WSDL version 423,2013-05-10 01:43:00,
2013-05-09 21:53:00,56.7,56.7,29.82,NNW,338,0.0,0.0,100,0.00,,,0.37,WSDL version 423,2013-05-10 01:53:00,
2013-05-09 22:03:00,56.8,56.8,29.82,NNW,338,0.0,0.0,100,0.00,,,0.37,WSDL version 423,2013-05-10 02:03:00,
2013-05-09 22:13:00,56.8,56.8,29.82,NNW,338,0.0,0.0,100,0.00,,,0.37,WSDL version 423,2013-05-10 02:13:00,
2013-05-09 22:23:00,56.8,56.8,29.81,NNW,338,0.0,0.0,100,0.04,,,0.41,WSDL version 423,2013-05-10 02:23:00,
2013-05-09 22:33:00,56.9,56.9,29.81,NNW,338,0.0,0.0,100,0.08,,,0.46,WSDL version 423,2013-05-10 02:33:00,
2013-05-09 22:43:00,57.0,57.0,29.81,NNW,338,0.0,0.0,100,0.08,,,0.46,WSDL version 423,2013-05-10 02:43:00,
2013-05-09 22:53:00,57.0,57.0,29.81,NNW,338,0.0,0.0,100,0.08,,,0.46,WSDL version 423,2013-05-10 02:53:00,
2013-05-09 23:03:00,57.0,57.0,29.80,NNW,338,0.0,0.0,100,0.13,,,0.50,WSDL version 423,2013-05-10 03:03:00,
2013-05-09 23:13:00,57.0,57.0,29.81,NNW,338,0.0,0.0,100,0.13,,,0.50,WSDL version 423,2013-05-10 03:13:00,
2013-05-09 23:23:00,57.0,57.0,29.80,NNW,338,0.0,0.0,100,0.09,,,0.50,WSDL version 423,2013-05-10 03:23:00,
2013-05-09 23:33:00,56.8,56.8,29.80,NNW,338,0.0,0.0,100,0.04,,,0.50,WSDL version 423,2013-05-10 03:33:00,
2013-05-09 23:43:00,56.8,56.8,29.80,NNW,338,0.0,0.0,100,0.04,,,0.50,WSDL version 423,2013-05-10 03:43:00,
2013-05-09 23:53:00,56.8,56.8,29.80,NNW,338,0.0,0.0,100,0.00,,,0.50,WSDL version 423,2013-05-10 03:53:00,